TimeEDT,TemperatureF,Dew PointF,Humidity,Sea Level PressureIn,VisibilityMPH,Wind Direction,Wind SpeedMPH,Gust SpeedMPH,PrecipitationIn,Events,Conditions,WindDirDegrees,DateUTC
12:15 AM,35.6,30.2,81,30.01,10.0,WNW,3.5,-,N/A,,Clear,290,2014-05-18 04:15:00
12:35 AM,33.8,28.4,81,30.01,10.0,Calm,Calm,-,N/A,,Clear,0,2014-05-18 04:35:00
12:55 AM,33.8,28.4,81,30.01,10.0,Calm,Calm,-,N/A,,Clear,0,2014-05-18 04:55:00
1:15 AM,33.8,28.4,81,30.01,10.0,Calm,Calm,-,N/A,,Clear,0,2014-05-18 05:15:00
1:35 AM,32.0,26.6,80,30.02,10.0,Calm,Calm,-,N/A,,Clear,0,2014-05-18 05:35:00
1:55 AM,32.0,28.4,87,30.01,10.0,Calm,Calm,-,N/A,,Clear,0,2014-05-18 05:55:00
2:15 AM,32.0,28.4,87,30.02,10.0,Calm,Calm,-,N/A,,Clear,0,2014-05-18 06:15:00
2:35 AM,30.2,28.4,93,30.02,10.0,Calm,Calm,-,N/A,,Clear,0,2014-05-18 06:35:00
2:55 AM,30.2,28.4,93,30.01,10.0,Calm,Calm,-,N/A,,Clear,0,2014-05-18 06:55:00
3:15 AM,30.2,28.4,93,30.02,10.0,Calm,Calm,-,N/A,,Clear,0,2014-05-18 07:15:00
3:35 AM,30.2,28.4,93,30.02,10.0,Calm,Calm,-,N/A,,Clear,0,2014-05-18 07:35:00
3:55 AM,30.2,26.6,86,30.02,10.0,Calm,Calm,-,N/A,,Clear,0,2014-05-18 07:55:00
4:15 AM,30.2,26.6,86,30.02,10.0,Calm,Calm,-,N/A,,Clear,0,2014-05-18 08:15:00
4:35 AM,30.2,26.6,86,30.03,10.0,Calm,Calm,-,N/A,,Clear,0,2014-05-18 08:35:00
4:55 AM,30.2,26.6,86,30.02,10.0,Calm,Calm,-,N/A,,Clear,0,2014-05-18 08:55:00
5:15 AM,30.2,28.4,93,30.03,10.0,Calm,Calm,-,N/A,,Clear,0,2014-05-18 09:15:00
5:35 AM,28.4,24.8,86,30.03,10.0,WNW,4.6,-,N/A,,Clear,290,2014-05-18 09:35:00
5:55 AM,30.2,26.6,86,30.03,10.0,Calm,Calm,-,N/A,,Clear,0,2014-05-18 09:55:00
6:15 AM,30.2,26.6,86,30.03,10.0,Calm,Calm,-,N/A,,Clear,0,2014-05-18 10:15:00
6:35 AM,30.2,26.6,86,30.04,10.0,Calm,Calm,-,N/A,,Clear,0,2014-05-18 10:35:00
6:55 AM,30.2,26.6,86,30.04,10.0,Calm,Calm,-,N/A,,Clear,0,2014-05-18 10:55:00
7:15 AM,35.6,30.2,81,30.05,10.0,Calm,Calm,-,N/A,,Clear,0,2014-05-18 11:15:00
7:35 AM,39.2,33.8,81,30.05,10.0,Calm,Calm,-,N/A,,Partly Cloudy,0,2014-05-18 11:35:00
7:55 AM,42.8,33.8,70,30.06,10.0,WSW,4.6,-,N/A,,Scattered Clouds,250,2014-05-18 11:55:00
8:15 AM,42.8,33.8,70,30.06,10.0,WSW,4.6,-,N/A,,Mostly Cloudy,250,2014-05-18 12:15:00
8:35 AM,44.6,33.8,66,30.06,10.0,WSW,5.8,-,N/A,,Mostly Cloudy,240,2014-05-18 12:35:00
8:55 AM,46.4,33.8,62,30.06,10.0,SW,8.1,-,N/A,,Mostly Cloudy,230,2014-05-18 12:55:00
9:15 AM,48.2,33.8,58,30.07,10.0,WSW,11.5,17.3,N/A,,Overcast,250,2014-05-18 13:15:00
9:35 AM,51.8,35.6,54,30.07,10.0,West,8.1,16.1,N/A,,Mostly Cloudy,260,2014-05-18 13:35:00
9:55 AM,51.8,37.4,58,30.06,10.0,SSW,8.1,-,N/A,,Mostly Cloudy,210,2014-05-18 13:55:00
10:15 AM,55.4,37.4,51,30.06,10.0,SW,9.2,-,N/A,,Mostly Cloudy,230,2014-05-18 14:15:00
10:35 AM,53.6,35.6,51,30.07,10.0,SSW,6.9,-,N/A,,Scattered Clouds,210,2014-05-18 14:35:00
10:55 AM,57.2,37.4,48,30.06,10.0,SSW,9.2,-,N/A,,Partly Cloudy,200,2014-05-18 14:55:00
11:15 AM,62.6,35.6,37,30.06,10.0,WSW,15.0,19.6,N/A,,Mostly Cloudy,240,2014-05-18 15:15:00
11:35 AM,62.6,37.4,39,30.06,10.0,SSW,13.8,18.4,N/A,,Partly Cloudy,200,2014-05-18 15:35:00
11:55 AM,62.6,37.4,39,30.05,10.0,SSW,13.8,-,N/A,,Clear,210,2014-05-18 15:55:00
12:15 PM,62.6,37.4,39,30.05,10.0,SSW,10.4,-,N/A,,Clear,200,2014-05-18 16:15:00
12:35 PM,59.0,37.4,45,30.05,10.0,South,12.7,-,N/A,,Clear,180,2014-05-18 16:35:00
12:55 PM,60.8,37.4,42,30.05,10.0,SSW,12.7,-,N/A,,Clear,200,2014-05-18 16:55:00
1:15 PM,60.8,37.4,42,30.05,10.0,SSW,17.3,20.7,N/A,,Clear,210,2014-05-18 17:15:00
1:35 PM,57.2,37.4,48,30.05,10.0,South,16.1,20.7,N/A,,Clear,190,2014-05-18 17:35:00
1:55 PM,60.8,37.4,42,30.04,10.0,South,15.0,20.7,N/A,,Clear,190,2014-05-18 17:55:00
2:15 PM,60.8,37.4,42,30.04,10.0,South,16.1,23.0,N/A,,Scattered Clouds,190,2014-05-18 18:15:00
2:35 PM,59.0,37.4,45,30.04,10.0,South,18.4,24.2,N/A,,Mostly Cloudy,190,2014-05-18 18:35:00
2:55 PM,57.2,35.6,44,30.06,9.0,South,4.6,28.8,N/A,,Mostly Cloudy,190,2014-05-18 18:55:00
3:15 PM,53.6,37.4,54,30.06,10.0,SSE,10.4,-,N/A,,Mostly Cloudy,150,2014-05-18 19:15:00
3:35 PM,51.8,37.4,58,30.09,10.0,ENE,5.8,-,N/A,,Overcast,60,2014-05-18 19:35:00
3:55 PM,51.8,39.2,62,30.10,8.0,Calm,Calm,-,0.02,,Overcast,0,2014-05-18 19:55:00
4:15 PM,51.8,42.8,71,30.07,9.0,SE,12.7,-,0.01,,Overcast,140,2014-05-18 20:15:00
4:35 PM,57.2,46.4,67,30.06,10.0,SE,12.7,-,0.01,,Partly Cloudy,130,2014-05-18 20:35:00
4:55 PM,59.0,44.6,59,30.07,10.0,SE,12.7,-,0.01,,Clear,130,2014-05-18 20:55:00
5:15 PM,55.4,44.6,67,30.07,10.0,SE,11.5,-,N/A,,Clear,130,2014-05-18 21:15:00
5:35 PM,55.4,42.8,63,30.07,10.0,SE,11.5,-,N/A,,Clear,130,2014-05-18 21:35:00
5:55 PM,55.4,42.8,63,30.07,10.0,SE,10.4,-,N/A,,Clear,140,2014-05-18 21:55:00
6:15 PM,51.8,39.2,62,30.08,10.0,SE,10.4,-,N/A,,Mostly Cloudy,140,2014-05-18 22:15:00
6:35 PM,53.6,41.0,62,30.09,10.0,SSE,6.9,-,N/A,,Mostly Cloudy,150,2014-05-18 22:35:00
6:55 PM,53.6,39.2,58,30.09,10.0,South,5.8,-,N/A,,Mostly Cloudy,170,2014-05-18 22:55:00
7:15 PM,53.6,37.4,54,30.08,10.0,SSE,8.1,-,N/A,,Mostly Cloudy,160,2014-05-18 23:15:00
7:35 PM,51.8,39.2,62,30.08,10.0,SSE,9.2,-,N/A,,Mostly Cloudy,160,2014-05-18 23:35:00
7:55 PM,48.2,39.2,71,30.08,10.0,SE,4.6,-,N/A,,Partly Cloudy,140,2014-05-18 23:55:00
8:15 PM,48.2,37.4,66,30.08,10.0,SSE,3.5,-,N/A,,Partly Cloudy,150,2014-05-19 00:15:00
8:35 PM,46.4,39.2,76,30.08,10.0,SE,4.6,-,N/A,,Clear,130,2014-05-19 00:35:00
8:55 PM,46.4,37.4,71,30.08,10.0,SSE,5.8,-,N/A,,Scattered Clouds,150,2014-05-19 00:55:00
9:15 PM,46.4,39.2,76,30.07,10.0,Calm,Calm,-,N/A,,Partly Cloudy,0,2014-05-19 01:15:00
9:35 PM,46.4,37.4,71,30.07,10.0,Calm,Calm,-,N/A,,Clear,0,2014-05-19 01:35:00
9:55 PM,44.6,37.4,76,30.07,10.0,Calm,Calm,-,N/A,,Clear,0,2014-05-19 01:55:00
10:15 PM,44.6,37.4,76,30.08,10.0,Calm,Calm,-,N/A,,Clear,0,2014-05-19 02:15:00
10:35 PM,42.8,37.4,81,30.08,10.0,Calm,Calm,-,N/A,,Clear,0,2014-05-19 02:35:00
10:55 PM,42.8,37.4,81,30.08,10.0,Calm,Calm,-,N/A,,Clear,0,2014-05-19 02:55:00
11:15 PM,42.8,37.4,81,30.07,10.0,Calm,Calm,-,N/A,,Clear,0,2014-05-19 03:15:00
11:35 PM,39.2,35.6,87,30.08,10.0,Calm,Calm,-,N/A,,Clear,0,2014-05-19 03:35:00
11:55 PM,39.2,37.4,93,30.08,10.0,Calm,Calm,-,N/A,,Clear,0,2014-05-19 03:55:00